Location: Goettingen
(51.5300°N, 9.9433°E)
Time: 11:20:54
(UTC+02:00)

ISS - Pass Details

Date: 19 May 2019
Orbit: 407 x 410 km, 51.6° (Epoch: 21 May)

Event Time Altitude Azimuth Distance (km) Brightness Sun altitude
Rises 22:01:03 0° 214° (SW) 2,322 -0.1 -6.8°
Reaches altitude 10° 22:03:24 10° 199° (SSW) 1,466 -1.3 -7.1°
Maximum altitude 22:06:01 22° 146° (SE) 946 -2.6 -7.4°
Drops below altitude 10° 22:08:39 10° 93° (E) 1,474 -1.4 -7.7°
Sets 22:11:01 0° 78° (ENE) 2,338 -0.3 -7.9°
